Home   Weather   Iquitos   Past weeks

Flag for Peru Past Weather in Iquitos, Loreto, Peru — Yesterday and Last 2 Weeks

Now
79 °F

Passing clouds.


Feels Like: 82 °F
Forecast: N/A
Wind: 5 mph from Southeast

Location: Iquitos Airport

Current Time: Apr 29, 2017 at 6:49:05 pm

Latest Report: Apr 29, 2017 at 6:00 pm


Visibility: N/A

Pressure: 29.89 "Hg

Humidity: 84%

Dew Point: 73 °F

Location of IquitosLocation

Past Weather in Iquitos — Graph

°F

Iquitos Temperature Yesterday

Maximum temperature yesterday: 90 °F (at 2:00 pm)
Minimum temperature yesterday: 73 °F (at 3:00 am)
Average temperature yesterday: 80 °F

High & Low Weather Summary for the Past Weeks

 TemperatureHumidityPressure
High93 °F (Apr 25, 3:00 pm)100% (Apr 17, 6:00 am)30.01 "Hg (Apr 17, 6:00 am)
Low73 °F (Apr 15, 3:00 am)53% (Apr 25, 3:00 pm)29.68 "Hg (Apr 25, 3:00 pm)
Average79 °F86%29.86 "Hg
* Reported Apr 14 6:00 pm — Apr 29 6:00 pm, Iquitos, Weather by CustomWeather, © 2017

Note: Actual official high and low records may vary slightly from our data, if they occured in-between our weather recording intervals... More about our weather records

Advertising

Iquitos Weather History for the Previous 24 Hours

Scroll right to see more
 ConditionsComfort  
Time TempWeatherWind HumidityBarometerVisibility
6:00 pm
Sat, Apr 29
79 °FPassing clouds.5 mph84%29.89 "HgN/A
5:00 pm84 °FScattered clouds.8 mph70%29.86 "HgN/A
4:00 pm86 °FPartly sunny.7 mph66%29.86 "HgN/A
3:00 pm88 °FPartly sunny.7 mph62%29.86 "HgN/A
2:00 pm86 °FBroken clouds.5 mph66%29.89 "HgN/A
1:00 pm84 °FPartly sunny.5 mph70%29.92 "HgN/A
12:00 pm82 °FPartly sunny.5 mph74%29.98 "HgN/A
11:00 am82 °FPartly sunny.8 mph74%29.98 "HgN/A
10:00 am81 °FBroken clouds.8 mph74%30.01 "HgN/A
9:00 am79 °FPartly sunny.8 mph79%30.01 "HgN/A
8:00 am77 °FPartly sunny.6 mph89%29.98 "HgN/A
7:00 am73 °FBroken clouds.5 mph94%29.95 "HgN/A
6:24 am73 °FMore clouds than sun.7 mph94%29.95 "Hg4 mi
6:00 am75 °FLight rain. Fog.5 mph94%29.95 "Hg1 mi
5:00 am75 °FPartly cloudy.6 mph94%29.92 "HgN/A
4:00 am75 °FPassing clouds.7 mph94%29.89 "HgN/A
3:00 am75 °FPassing clouds.7 mph94%29.89 "HgN/A
2:00 am75 °FPassing clouds.7 mph94%29.89 "HgN/A
1:00 am75 °FLight rain. Passing clouds.3 mph94%29.92 "Hg4 mi
12:42 am75 °FRain. Passing clouds.5 mph94%29.92 "Hg2 mi
12:00 am75 °FPassing clouds.8 mph94%29.92 "HgN/A
11:00 pm
Fri, Apr 28
77 °FPassing clouds.No wind94%29.92 "HgN/A
10:00 pm77 °FPassing clouds.No wind94%29.92 "HgN/A
9:00 pm77 °FPassing clouds.3 mph94%29.92 "HgN/A
8:00 pm79 °FPassing clouds.3 mph89%29.89 "HgN/A
7:00 pm79 °FScattered showers. Passing clouds.5 mph89%29.86 "HgN/A
6:40 pm81 °FSprinkles. Passing clouds.1 mph84%29.86 "Hg4 mi
6:00 pm82 °FScattered showers. Passing clouds.3 mph79%29.83 "HgN/A
Weather by CustomWeather, © 2017

See weather overviewHow to use our weather pages